Skip Page Navigation
NASA JPL Caltech
NASA Logo - Jet Propulsion Laboratory + View the NASA Portal
+ Near-Earth Object (NEO) Program
Search JPL
JPL Home Earth Solar System Stars & Galaxies Technology
JPL Solar System Dynamics
BODIES ORBITS EPHEMERIDES TOOLS PHYSICAL DATA DISCOVERY FAQ SITE MAP
JPL Small-Body Database Browser
Search: [ help ]  
37595 (1991 UZ1)
Classification: Main-belt Asteroid          SPK-ID: 2037595
Ephemeris | Orbit Diagram | Orbital Elements | Physical Parameters | Discovery Circumstances ]

[ show orbit diagram ]
Orbital Elements at Epoch 2456800.5 (2014-May-23.0) TDB
Reference: JPL 8 (heliocentric ecliptic J2000)
 Element Value Uncertainty (1-sigma)   Units 
e .1182668435536023 6.6737e-08  
a 2.977063538173889 3.304e-08 AU
q 2.624975630455544 1.9509e-07 AU
i 11.10485293161259 9.8065e-06 deg
node 28.46888978047008 3.6819e-05 deg
peri 25.22867501910495 5.5385e-05 deg
M 126.114349127814 4.2745e-05 deg
tp 2456143.231854802954
(2012-Aug-03.73185480)
0.00021965 JED
period 1876.206267624084
5.14
3.1233e-05
8.551e-08
d
yr
n .1918765576110577 3.1942e-09 deg/d
Q 3.329151445892234 3.6947e-08 AU
  Orbit Determination Parameters
   # obs. used (total)      868  
   data-arc span      12423 days (34.01 yr)  
   first obs. used      1980-06-23  
   last obs. used      2014-06-28  
   planetary ephem.      DE431  
   SB-pert. ephem.      SB431-BIG16  
   condition code      0  
   fit RMS      .55876  
   data source      ORB  
   producer      Otto Matic  
   solution date      2014-Jul-14 13:16:25  

Additional Information
 Earth MOID = 1.63861 AU 
 T_jup = 3.222 
[ show covariance matrix ]

Ephemeris | Orbit Diagram | Orbital Elements | Physical Parameters | Discovery Circumstances ]

Physical Parameter Table
Parameter Symbol Value Units Sigma Reference Notes
absolute magnitude H 13.0 mag n/a MPO250573  

37595 (1991 UZ1)          Discovered 1991-Oct-29 by Ueda, S., Kaneda, H. at Kushiro (399)
Reference: 20020328/Numbers.arcLast Updated: 2004-04-19

Alternate Designations
 1991 UZ1 = 1999 GS2 
Ephemeris | Orbit Diagram | Orbital Elements | Physical Parameters | Discovery Circumstances ]
ABOUT SSD CREDITS/AWARDS PRIVACY/COPYRIGHT GLOSSARY LINKS
FirstGov 2014-Jul-29 18:51 UT
(server date/time)  
NASA Home Page
Site Manager:   Donald K. Yeomans
Webmaster  Alan B. Chamberlin